Weather History for Ada, OK

Change the Weather History Date:

Thursday, January 30, 2014

  Actual Average Record
Temperature  
Mean Temperature 40 °F -  
Max Temperature 50 °F 54 °F 78 °F (1911)
Min Temperature 30 °F 29 °F 0 °F (1951)
Degree Days  
Heating Degree Days 25    
Moisture  
Dew Point 27 °F    
Average Humidity 62    
Maximum Humidity 87    
Minimum Humidity 48    
Precipitation  
Precipitation 0.00 in - - ()
Sea Level Pressure  
Sea Level Pressure 29.88 in    
Wind  
Wind Speed 15 mph (SSE)    
Max Wind Speed 25 mph    
Max Gust Speed 34 mph    
Visibility 10 miles    
Events      
Averages and records for this station are not official NWS values.
T = Trace of Precipitation, MM = Missing Value Source: NWS Daily Summary

Daily Weather History Graph

Daily Weather History Graph

Search for Another Location

Airport:

Trip Planner

Search our weather history database for the weather conditions in past years. The results will help you decide how hot, cold, wet, or windy it might be!

Date:

Astronomy

Jan. 30, 2014 Rise Set
Actual Time 7:26 AM CST 5:53 PM CST
Civil Twilight 6:59 AM CST 6:20 PM CST
Nautical Twilight 6:29 AM CST 6:50 PM CST
Astronomical Twilight 5:59 AM CST 7:20 PM CST
Moon 6:55 AM CST (1/30) 6:04 PM CST (1/30)
Length of Visible Light 11h 20m
Length of Day
10h 27m
Waning Crescent, 0% of the Moon is Illuminated
Jan 30
Waning Crescent
Jan 30
New
Feb 6
First Quarter
Feb 14
Full
Feb 22
Last Quarter

Hourly Weather History & Observations

Time (CST) Temp. Windchill Dew Point Humidity Pressure Visibility Wind Dir Wind Speed Gust Speed Precip Events Conditions
12:15 AM 32.0 °F 22.1 °F 14.0 °F 48% 30.07 in 10.0 mi South 13.8 mph 19.6 mph N/A   Clear
12:35 AM 32.0 °F 21.2 °F 15.8 °F 51% 30.07 in 10.0 mi South 16.1 mph 19.6 mph N/A   Clear
12:55 AM 32.0 °F 21.2 °F 15.8 °F 51% 30.05 in 10.0 mi South 16.1 mph 20.7 mph N/A   Clear
1:15 AM 32.0 °F 21.6 °F 15.8 °F 51% 30.05 in 10.0 mi South 15.0 mph - N/A   Clear
1:35 AM 32.0 °F 22.1 °F 15.8 °F 51% 30.04 in 10.0 mi South 13.8 mph - N/A   Clear
1:55 AM 30.2 °F 19.8 °F 15.8 °F 55% 30.04 in 10.0 mi South 13.8 mph - N/A   Clear
2:15 AM 30.2 °F 18.9 °F 15.8 °F 55% 30.02 in 10.0 mi South 16.1 mph 19.6 mph N/A   Clear
2:35 AM 30.2 °F 18.1 °F 15.8 °F 55% 30.01 in 10.0 mi South 18.4 mph 26.5 mph N/A   Clear
2:55 AM 30.2 °F 17.8 °F 17.6 °F 60% 29.99 in 10.0 mi South 19.6 mph 23.0 mph N/A   Clear
3:15 AM 32.0 °F 20.5 °F 17.6 °F 55% 29.98 in 10.0 mi South 18.4 mph 26.5 mph N/A   Clear
3:35 AM 30.2 °F 18.1 °F 17.6 °F 60% 29.97 in 10.0 mi South 18.4 mph 25.3 mph N/A   Clear
3:55 AM 30.2 °F 19.3 °F 17.6 °F 60% 29.96 in 10.0 mi South 15.0 mph 24.2 mph N/A   Clear
4:15 AM 32.0 °F 22.1 °F 17.6 °F 55% 29.95 in 10.0 mi South 13.8 mph 20.7 mph N/A   Clear
4:35 AM 30.2 °F 19.8 °F 17.6 °F 60% 29.94 in 10.0 mi South 13.8 mph 19.6 mph N/A   Clear
4:55 AM 30.2 °F 18.9 °F 17.6 °F 60% 29.93 in 10.0 mi South 16.1 mph 21.9 mph N/A   Clear
5:15 AM 30.2 °F 19.8 °F 17.6 °F 60% 29.92 in 10.0 mi South 13.8 mph 19.6 mph N/A   Clear
5:35 AM 30.2 °F 19.3 °F 17.6 °F 60% 29.91 in 10.0 mi South 15.0 mph - N/A   Clear
5:55 AM 30.2 °F 19.3 °F 17.6 °F 60% 29.91 in 10.0 mi South 15.0 mph - N/A   Clear
6:15 AM 32.0 °F 21.2 °F 19.4 °F 60% 29.92 in 10.0 mi South 16.1 mph 23.0 mph N/A   Clear
6:35 AM 32.0 °F 21.2 °F 19.4 °F 60% 29.92 in 10.0 mi South 16.1 mph 24.2 mph N/A   Clear
6:55 AM 30.2 °F 18.1 °F 19.4 °F 64% 29.90 in 10.0 mi South 18.4 mph 24.2 mph N/A   Clear
7:15 AM 32.0 °F 19.5 °F 19.4 °F 60% 29.90 in 10.0 mi South 21.9 mph 28.8 mph N/A   Clear
7:35 AM 30.2 °F 18.5 °F 19.4 °F 64% 29.89 in 10.0 mi South 17.3 mph 25.3 mph N/A   Clear
7:55 AM 32.0 °F 20.1 °F 19.4 °F 60% 29.88 in 10.0 mi South 19.6 mph 29.9 mph N/A   Clear
8:15 AM 32.0 °F 19.8 °F 19.4 °F 60% 29.89 in 10.0 mi South 20.7 mph 25.3 mph N/A   Clear
8:35 AM 32.0 °F 19.8 °F 19.4 °F 60% 29.90 in 10.0 mi South 20.7 mph 24.2 mph N/A   Clear
8:55 AM 32.0 °F 20.8 °F 19.4 °F 60% 29.88 in 10.0 mi South 17.3 mph 26.5 mph N/A   Clear
9:15 AM 33.8 °F 22.2 °F 19.4 °F 56% 29.88 in 10.0 mi South 20.7 mph 26.5 mph N/A   Clear
9:35 AM 33.8 °F 22.2 °F 19.4 °F 56% 29.87 in 10.0 mi South 20.7 mph 28.8 mph N/A   Clear
9:55 AM 35.6 °F 24.8 °F 21.2 °F 56% 29.87 in 10.0 mi South 19.6 mph 31.1 mph N/A   Clear
10:15 AM 35.6 °F 23.4 °F 21.2 °F 56% 29.86 in 10.0 mi South 25.3 mph 34.5 mph N/A   Clear
10:35 AM 37.4 °F 26.6 °F 23.0 °F 56% 29.86 in 10.0 mi South 21.9 mph 31.1 mph N/A   Clear
10:55 AM 39.2 °F 29.6 °F 23.0 °F 52% 29.85 in 10.0 mi South 19.6 mph 28.8 mph N/A   Clear
11:15 AM 41.0 °F 31.9 °F 26.6 °F 57% 29.86 in 10.0 mi SSW 19.6 mph 31.1 mph N/A   Clear
11:35 AM 42.8 °F 34.5 °F 28.4 °F 57% 29.85 in 10.0 mi SSW 18.4 mph 27.6 mph N/A   Clear
11:55 AM 44.6 °F 36.1 °F 28.4 °F 53% 29.85 in 10.0 mi South 21.9 mph 25.3 mph N/A   Clear
12:15 PM 44.6 °F 36.9 °F 30.2 °F 57% 29.84 in 10.0 mi South 18.4 mph 25.3 mph N/A   Clear
12:35 PM 46.4 °F 39.0 °F 30.2 °F 53% 29.84 in 10.0 mi South 19.6 mph 23.0 mph N/A   Clear
12:55 PM 46.4 °F 40.4 °F 32.0 °F 57% 29.82 in 10.0 mi SSW 13.8 mph 23.0 mph N/A   Clear
1:15 PM 46.4 °F 39.5 °F 32.0 °F 57% 29.81 in 10.0 mi South 17.3 mph 20.7 mph N/A   Clear
1:35 PM 46.4 °F 39.8 °F 32.0 °F 57% 29.82 in 10.0 mi South 16.1 mph 20.7 mph N/A   Clear
1:55 PM 46.4 °F 40.4 °F 32.0 °F 57% 29.80 in 10.0 mi South 13.8 mph - N/A   Clear
2:15 PM 46.4 °F 40.4 °F 32.0 °F 57% 29.80 in 10.0 mi South 13.8 mph - N/A   Clear
2:35 PM 48.2 °F - 32.0 °F 54% 29.82 in 10.0 mi South 11.5 mph - N/A   Clear
2:55 PM 50.0 °F - 32.0 °F 50% 29.82 in 10.0 mi SSW 11.5 mph 17.3 mph N/A   Clear
3:15 PM 48.2 °F - 32.0 °F 54% 29.82 in 10.0 mi South 12.7 mph 19.6 mph N/A   Clear
3:35 PM 50.0 °F - 32.0 °F 50% 29.81 in 10.0 mi South 13.8 mph 18.4 mph N/A   Clear
3:55 PM 50.0 °F - 33.8 °F 54% 29.81 in 10.0 mi South 13.8 mph - N/A   Clear
4:15 PM 50.0 °F - 33.8 °F 54% 29.82 in 10.0 mi South 10.4 mph - N/A   Clear
4:35 PM 48.2 °F - 33.8 °F 58% 29.82 in 10.0 mi SSE 11.5 mph - N/A   Clear
4:55 PM 48.2 °F - 33.8 °F 58% 29.80 in 10.0 mi SSE 10.4 mph - N/A   Clear
5:15 PM 48.2 °F - 33.8 °F 58% 29.82 in 10.0 mi SE 4.6 mph - N/A   Clear
5:35 PM 46.4 °F 42.9 °F 33.8 °F 62% 29.82 in 10.0 mi SE 6.9 mph - N/A   Clear
5:55 PM 46.4 °F 43.5 °F 33.8 °F 62% 29.83 in 10.0 mi ESE 5.8 mph - N/A   Clear
6:15 PM 44.6 °F 40.7 °F 33.8 °F 66% 29.83 in 10.0 mi SE 6.9 mph - N/A   Clear
6:35 PM 44.6 °F 40.2 °F 33.8 °F 66% 29.82 in 10.0 mi ESE 8.1 mph - N/A   Clear
6:55 PM 44.6 °F 40.2 °F 33.8 °F 66% 29.84 in 10.0 mi ESE 8.1 mph - N/A   Clear
7:15 PM 44.6 °F 40.2 °F 33.8 °F 66% 29.84 in 10.0 mi ESE 8.1 mph - N/A   Clear
7:35 PM 44.6 °F 39.7 °F 35.6 °F 71% 29.84 in 10.0 mi ESE 9.2 mph - N/A   Clear
7:55 PM 44.6 °F 39.2 °F 35.6 °F 71% 29.83 in 10.0 mi SE 10.4 mph - N/A   Clear
8:15 PM 44.6 °F 38.8 °F 37.4 °F 76% 29.83 in 10.0 mi SE 11.5 mph - N/A   Clear
8:35 PM 44.6 °F 38.4 °F 37.4 °F 76% 29.83 in 10.0 mi SE 12.7 mph - N/A   Clear
8:55 PM 44.6 °F 39.2 °F 37.4 °F 76% 29.84 in 10.0 mi SE 10.4 mph - N/A   Clear
9:15 PM 44.6 °F 38.8 °F 37.4 °F 76% 29.83 in 10.0 mi SE 11.5 mph - N/A   Clear
9:35 PM 42.8 °F 36.6 °F 37.4 °F 81% 29.83 in 10.0 mi SE 11.5 mph - N/A   Clear
9:55 PM 42.8 °F 36.6 °F 37.4 °F 81% 29.83 in 10.0 mi SE 11.5 mph - N/A   Clear
10:15 PM 42.8 °F 35.8 °F 39.2 °F 87% 29.83 in 10.0 mi SE 13.8 mph 20.7 mph N/A   Clear
10:35 PM 42.8 °F 35.8 °F 39.2 °F 87% 29.83 in 10.0 mi SE 13.8 mph - N/A   Clear
10:55 PM 42.8 °F 35.8 °F 39.2 °F 87% 29.83 in 10.0 mi SE 13.8 mph 18.4 mph N/A   Clear
11:15 PM 42.8 °F 37.0 °F 39.2 °F 87% 29.83 in 10.0 mi SE 10.4 mph - N/A   Clear
11:35 PM 42.8 °F 36.6 °F 39.2 °F 87% 29.83 in 10.0 mi SE 11.5 mph - N/A   Clear
11:55 PM 42.8 °F 36.2 °F 39.2 °F 87% 29.82 in 10.0 mi SE 12.7 mph - N/A   Clear